Location: Im Fang
(46.6019°N, 7.2397°E)
Time: 04:42:53
(UTC+00:00)

STARLINK 1033 - Pass Details

Date: 08 December 2019
Orbit: 444 x 446 km, 53.0° (Epoch: 18 January)

Event Time Altitude Azimuth Distance (km) Brightness Sun altitude
Exits shadow 04:05:24 16° 85° (E) 1,169 6.1 -29.3°
Drops below altitude 10° 04:06:14 10° 92° (E) 1,481 6.8 -29.2°
Enters shadow 05:03:01 -68° 301° (WNW) 12,310 10.4 -19.5°
Maximum altitude 05:39:58 41° 218° (SW) 609 3.7 -13.4°
